Location: Hope
(40.9110°N, 74.9680°W)
Time: 04:25:22
(UTC-04:00)

ISS - Visible Passes

Search period start: 22 May 2018 00:00
Search period end: 01 June 2018 00:00
Orbit: 402 x 407 km, 51.6° (Epoch: 23 May)

Date Brightness Start Highest point End Pass type
(mag) Time Alt. Az. Time Alt. Az. Time Alt. Az.
22 May -0.5 00:05:57 10° NW 00:07:49 14° N 00:09:41 10° NNE visible
22 May -0.6 01:43:25 10° NNW 01:45:21 15° N 01:47:16 10° NE visible
22 May -2.6 03:19:21 10° NW 03:22:29 42° NNE 03:25:37 10° ESE visible
22 May -2.6 04:56:13 10° W 04:58:48 22° SW 05:01:22 10° S visible
22 May -3.5 21:35:11 10° WSW 21:38:26 68° NW 21:41:42 10° NE visible
22 May -0.8 23:13:08 10° WNW 23:15:23 17° NNW 23:17:39 10° NNE visible
23 May -0.4 00:51:16 10° NNW 00:52:53 13° N 00:54:30 10° NE visible
23 May -1.7 02:27:21 10° NW 02:30:12 27° NNE 02:33:03 10° E visible
23 May -3.5 04:03:40 10° WNW 04:06:47 42° SW 04:09:52 10° SSE visible
23 May -1.2 22:20:21 10° WNW 22:22:59 22° NNW 22:25:40 10° NNE visible
23 May -0.4 23:58:51 10° NNW 00:00:24 13° N 00:01:56 10° NNE visible
24 May -1.1 01:35:21 10° NNW 01:37:44 20° NNE 01:37:44 20° NNE visible
24 May -1.9 21:27:40 10° W 21:30:39 32° NNW 21:33:39 10° NE visible
24 May -0.5 23:06:10 10° NW 23:07:54 14° N 23:09:38 10° NNE visible
25 May -0.8 00:43:20 10° NNW 00:45:25 16° NNE 00:46:06 15° NNE visible
25 May -0.7 22:13:19 10° NW 22:15:25 16° NNW 22:17:32 10° NNE visible
25 May -0.6 23:51:13 10° NNW 23:52:56 13° N 23:54:39 10° NE visible
26 May -0.8 01:27:13 10° NW 01:27:43 13° NW 01:27:43 13° NW visible
26 May -1.0 21:20:27 10° WNW 21:22:59 20° NNW 21:25:29 10° NNE visible
26 May -0.6 22:58:52 10° NNW 23:00:24 13° N 23:01:57 10° NNE visible
27 May -1.1 00:35:11 10° NNW 00:36:56 20° N 00:36:56 20° N visible
27 May -0.7 22:06:14 10° NW 22:07:52 13° N 22:09:31 10° NNE visible
27 May -1.1 23:43:08 10° NNW 23:45:22 17° NNE 23:46:13 15° NE visible
28 May -0.8 21:13:22 10° NW 21:15:20 15° NNW 21:17:18 10° NNE visible
28 May -0.8 22:51:01 10° NNW 22:52:51 14° N 22:54:41 10° NE visible
29 May -1.1 00:26:58 10° NW 00:28:12 19° NNW 00:28:12 19° NNW visible
29 May -0.8 21:58:43 10° NNW 22:00:18 13° N 22:01:53 10° NNE visible
29 May -1.7 23:34:53 10° NW 23:37:35 24° NNE 23:37:35 24° NNE visible
30 May -0.8 21:06:08 10° NNW 21:07:43 13° N 21:09:18 10° NNE visible
30 May -1.3 22:42:49 10° NNW 22:45:11 18° NNE 22:47:00 13° NE visible
31 May -1.1 00:18:48 10° NW 00:19:37 16° NW 00:19:37 16° NW visible
31 May -1.0 21:50:41 10° NNW 21:52:40 15° NNE 21:54:37 10° NE visible
31 May -2.4 23:26:37 10° NW 23:29:03 37° N 23:29:03 37° N visible
